This is the latest recevied weather packets stored in our database for station/object DJ5CM-10. If no packets are shown the sender has not sent any weather packets the latest 10 day(s).
| Time | Temp. | Humidity | Pressure | Rain* | Wind** | Luminosity | Snow |
|---|---|---|---|---|---|---|---|
| 1777424880 | 5.56° C | 51% | 1028.4 hPa | - | - | - | - |
| 1777423980 | 5.56° C | 50% | 1028.5 hPa | - | - | - | - |
| 1777423080 | 6.11° C | 50% | 1028.4 hPa | - | - | - | - |
| 1777422180 | 6.11° C | 49% | 1028.5 hPa | - | - | - | - |
| 1777421280 | 6.11° C | 48% | 1028.5 hPa | - | - | - | - |
| 1777420380 | 6.67° C | 48% | 1028.5 hPa | - | - | - | - |
| 1777419480 | 6.67° C | 47% | 1028.5 hPa | - | - | - | - |
| 1777418580 | 6.67° C | 46% | 1028.6 hPa | - | - | - | - |
| 1777417680 | 7.22° C | 45% | 1028.4 hPa | - | - | - | - |
| 1777416779 | 7.22° C | 44% | 1028.2 hPa | - | - | - | - |
| 1777415879 | 7.78° C | 43% | 1028.2 hPa | - | - | - | - |
| 1777414979 | 7.78° C | 43% | 1028.1 hPa | - | - | - | - |
| 1777414079 | 7.78° C | 41% | 1028.1 hPa | - | - | - | - |
| 1777413179 | 8.33° C | 41% | 1027.9 hPa | - | - | - | - |
| 1777412279 | 8.89° C | 39% | 1027.9 hPa | - | - | - | - |
| 1777411379 | 8.89° C | 39% | 1027.9 hPa | - | - | - | - |
| 1777410479 | 9.44° C | 37% | 1027.7 hPa | - | - | - | - |
| 1777409578 | 10° C | 36% | 1027.7 hPa | - | - | - | - |
| 1777408678 | 10.56° C | 36% | 1027.5 hPa | - | - | - | - |
| 1777407778 | 11.11° C | 34% | 1027.3 hPa | - | - | - | - |
| 1777406878 | 11.67° C | 34% | 1027.2 hPa | - | - | - | - |
| 1777405978 | 12.22° C | 32% | 1027.1 hPa | - | - | - | - |
| 1777405078 | 12.78° C | 31% | 1027 hPa | - | - | - | - |
| 1777404178 | 13.33° C | 30% | 1027.1 hPa | - | - | - | - |
| 1777403278 | 13.89° C | 29% | 1027.1 hPa | - | - | - | - |
* Rain since midnight (hover to see other rain measurements)
** Current wind speed in m/s (hover to see current wind gust speed)